Find Starlink 2655

NORAD ID: 48449 Int'l Des: 2021-040 Owner: SPXS Country: US Constellation: starlink operational
LEOCIRCULAR

リアルタイム位置

3D地球を読み込み中...

Starlink 2655について

説明を読み込み中...

次回通過

Passes for default location (London). Set your location on the main map for personalized predictions.

高度履歴

Loading altitude history...

軌道要素

1 48449U 21040X 26126.40938698 .00005736 00000-0 19631-3 0 9994
2 48449 53.1583 269.7589 0000974 114.1643 245.9460 15.31721129275525
Epoch: May 6, 2026 • Age: 12 hours

現在のステータス

高度 483.6 km
速度 7.62 km/s
衛星直下点 -37.91°S, 35.08°E
打ち上げ日 May 9, 2021
運用期間 4.9 years
タイプ internet

技術仕様

分類 Payload
質量 260.00 kg
乾燥質量 248.00 kg
総質量 260.00 kg
長さ 0.20 m
直径 2.80 m
スパン 9.00 m
形状 Box + pan
製造者 SPXS
バスタイプ Starlink
フェーズステータス In Orbit
所有者/国 SPXS/US

Most Searched